Regional Weather Roundup
Issued by NWS

Home | Current Version | Previous Version | Text Only | Print | Product List | Glossary Off
Versions: 1 2 3 4 5 6 7 8 9 10 11 12 13 14 15 16 17 18 19 20 21 22 23 24 25 26 27 28 29 30 31 32 33 34 35 36 37 38 39 40 41 42 43 44 45 46 47 48 49 50

000
ASUS45 KCYS 110310
RWRWY

WYOMING REGIONAL WEATHER ROUNDUP
NATIONAL WEATHER SERVICE CHEYENNE WY
800 PM MST SUN DEC 10 2017

NOTE:  "FAIR" INDICATES FEW OR NO CLOUDS BELOW 12,000 FEET
WITH NO SIGNIFICANT WEATHER AND/OR OBSTRUCTIONS TO VISIBILITY.

WYZ001-110400-
YELLOWSTONE NATIONAL PARK

CITY           SKY/WX    TMP DP  RH WIND       PRES   REMARKS
LK YELLOWSTONE   N/A     11   9  92 W5        30.56S WCI   3
W YELLOWSTONE  NOT AVBL

$$
WYZ002>013-054>058-071-098>099-110400-
NORTHERN WYOMING

CITY           SKY/WX    TMP DP  RH WIND       PRES   REMARKS
JACKSON        FAIR      17  13  84 N6        30.57R WCI   9
CODY           FAIR      33  12  41 NE9       30.36R WCI  25
GREYBULL       FAIR      25  14  63 CALM      30.35R
WORLAND        FAIR      30  20  66 SE10      30.35R WCI  21
SHERIDAN       FAIR      39  13  34 E5        30.29R
BUFFALO        FAIR      39   6  25 W7        30.30R WCI  34
GILLETTE       FAIR      41  15  35 W13       30.26R
HULETT         FAIR      41  14  33 SW10      30.22R
NEWCASTLE      FAIR      34  16  47 N7        30.24R WCI  28

$$
WYZ014>020-022>026-101>103-110400-
CENTRAL WYOMING

CITY           SKY/WX    TMP DP  RH WIND       PRES   REMARKS
BIG PINEY      FAIR      30   0  27 N12       30.48F WCI  20
PINEDALE       FAIR      28   3  34 W7        30.48S WCI  21
DUBOIS         FAIR      34  -2  21 NW12      30.44S WCI  25
LANDER         FAIR      29  17  61 CALM      30.37F
RIVERTON       FAIR      21  13  71 CALM      30.40S
CASPER         FAIR      36  17  46 SW18      30.34F WCI  26
DOUGLAS        FAIR      33  19  56 NW10      30.30F WCI  25

$$
WYZ021-027>030-104>119-110400-
SOUTHERN WYOMING

CITY           SKY/WX    TMP DP  RH WIND       PRES   REMARKS
EVANSTON       FAIR      33  12  41 CALM      30.54F
FORT BRIDGER   FAIR      34   8  34 W13       30.54S WCI  25
ROCK SPRINGS   FAIR      34   4  28 SW16      30.47F WCI  24
DIXON          FAIR      21  11  66 SE9       30.55R WCI  11
RAWLINS        FAIR      30  11  45 W10       30.46F WCI  21
SARATOGA       FAIR      21  12  68 SW5       30.49F WCI  15
LARAMIE        FAIR      26   7  44 N8        30.42R WCI  18
CHEYENNE       FAIR      43   1  17 NW13G24   30.33R
TORRINGTON     FAIR      39  10  30 NW8       30.26F WCI  33
PINE BLUFFS    FAIR      25   1  36 MISG      30.33R

$$



USA.gov is the U.S. government's official web portal to all federal, state and local government web resources and services.